El Granada, CA

5:14 AM PDT on September 27, 2016 (GMT -0700)
Half Moon Bay

Weather History for KHAF - March, 2014

Change the Weather History Date:

Saturday, March 8, 2014

  Actual Average Record
Temperature  
Mean Temperature 54 °F -  
Max Temperature 66 °F 58 °F 66 °F (2014)
Min Temperature 41 °F 45 °F 32 °F (2012)
Degree Days  
Heating Degree Days 12    
Growing Degree Days 4 (Base 50)    
Moisture  
Dew Point 50 °F    
Average Humidity 87    
Maximum Humidity 100    
Minimum Humidity 63    
Precipitation  
Precipitation 0.00 in - - ()
Sea Level Pressure  
Sea Level Pressure 30.16 in    
Wind  
Wind Speed 3 mph (NNW)    
Max Wind Speed 17 mph    
Max Gust Speed 18 mph    
Visibility 6 miles    
Events Fog    
Averages and records for this station are not official NWS values.
T = Trace of Precipitation, MM = Missing Value Source: NWS Daily Summary

Daily Weather History Graph

Daily Weather History Graph

Search for Another Location

Airport or City:

Trip Planner

Search our weather history database for the weather conditions in past years. The results will help you decide how hot, cold, wet, or windy it might be!

Date:

Astronomy

Mar. 08, 2014 Rise Set
Actual Time 6:31 AM PST 6:10 PM PST
Civil Twilight 6:05 AM PST 6:36 PM PST
Nautical Twilight 5:34 AM PST 7:07 PM PST
Astronomical Twilight 5:04 AM PST 7:37 PM PST
Moon 11:24 AM PST (3/8) 1:05 AM PST (3/8)
Length of Visible Light 12h 31m
Length of Day
11h 39m
First Quarter, 53% of the Moon is Illuminated
Mar 8
First Quarter
Mar 16
Full
Mar 23
Last Quarter
Mar 30
New
Apr 7
First Quarter

Hourly Weather History & Observations

Time (PST) Temp. Windchill Dew Point Humidity Pressure Visibility Wind Dir Wind Speed Gust Speed Precip Events Conditions
12:15 AM 44.6 °F - 42.8 °F 93% 30.16 in 8.0 mi Calm Calm - N/A   Clear
12:35 AM 44.6 °F 43.1 °F 42.8 °F 93% 30.15 in 8.0 mi NE 3.5 mph - N/A   Clear
12:55 AM 44.6 °F 43.1 °F 42.8 °F 93% 30.15 in 8.0 mi ENE 3.5 mph - N/A   Clear
1:15 AM 44.6 °F - 42.8 °F 93% 30.14 in 8.0 mi Calm Calm - N/A   Clear
1:35 AM 44.6 °F - 42.8 °F 93% 30.14 in 8.0 mi Calm Calm - N/A   Clear
1:55 AM 42.8 °F - 42.8 °F 100% 30.14 in 7.0 mi Calm Calm - N/A   Partly Cloudy
2:15 AM 41.0 °F - 41.0 °F 100% 30.13 in 8.0 mi Calm Calm - N/A   Scattered Clouds
2:35 AM 42.8 °F - 41.0 °F 93% 30.13 in 7.0 mi Calm Calm - N/A   Scattered Clouds
2:55 AM 41.0 °F - 41.0 °F 100% 30.12 in 7.0 mi Calm Calm - N/A   Mostly Cloudy
3:15 AM 42.8 °F - 41.0 °F 93% 30.13 in 7.0 mi Calm Calm - N/A   Mostly Cloudy
3:35 AM 42.8 °F 41.1 °F 42.8 °F 100% 30.14 in 6.0 mi NE 3.5 mph - N/A   Overcast
3:55 AM 44.6 °F - 44.6 °F 100% 30.15 in 6.0 mi Calm Calm - N/A   Overcast
4:15 AM 46.4 °F - 46.4 °F 100% 30.15 in 5.0 mi Calm Calm - N/A   Overcast
4:35 AM 48.2 °F - 48.2 °F 100% 30.16 in 5.0 mi Calm Calm - N/A   Overcast
4:55 AM 48.2 °F - 48.2 °F 100% 30.16 in 5.0 mi East 3.5 mph - N/A   Overcast
5:15 AM 50.0 °F - 48.2 °F 94% 30.15 in 3.0 mi SE 4.6 mph - N/A   Overcast
5:35 AM 50.0 °F - 50.0 °F 100% 30.14 in 2.5 mi Calm Calm - N/A   Overcast
5:55 AM 50.0 °F - 50.0 °F 100% 30.14 in 5.0 mi Calm Calm - N/A   Overcast
6:15 AM 50.0 °F - 50.0 °F 100% 30.14 in 5.0 mi East 3.5 mph - N/A   Overcast
6:35 AM 50.0 °F - 50.0 °F 100% 30.15 in 2.0 mi NE 3.5 mph - N/A   Overcast
6:55 AM 48.2 °F - 48.2 °F 100% 30.16 in 0.2 mi ENE 5.8 mph - N/A Fog Fog
7:15 AM 48.2 °F - 48.2 °F 100% 30.17 in 0.2 mi ENE 3.5 mph - N/A Fog Fog
7:35 AM 48.2 °F - 48.2 °F 100% 30.17 in 0.2 mi Calm Calm - N/A Fog Fog
7:55 AM 50.0 °F - 50.0 °F 100% 30.17 in 0.2 mi Calm Calm - N/A Fog Fog
8:15 AM 50.0 °F - 50.0 °F 100% 30.18 in 0.5 mi Calm Calm - N/A Fog Fog
8:35 AM 50.0 °F - 50.0 °F 100% 30.17 in 0.2 mi Calm Calm - N/A Fog Fog
8:55 AM 51.8 °F - 51.8 °F 100% 30.18 in 0.2 mi West 3.5 mph - N/A Fog Fog
9:15 AM 53.6 °F - 53.6 °F 100% 30.18 in 2.5 mi Calm Calm - N/A   Mostly Cloudy
9:35 AM 55.4 °F - 55.4 °F 100% 30.18 in 3.0 mi Calm Calm - N/A   Clear
9:55 AM 57.2 °F - 57.2 °F 100% 30.17 in 4.0 mi Calm Calm - N/A   Clear
10:15 AM 55.4 °F - 53.6 °F 94% 30.18 in 4.0 mi NW 6.9 mph - N/A   Partly Cloudy
10:35 AM 57.2 °F - 53.6 °F 88% 30.18 in 3.0 mi NW 5.8 mph - N/A   Clear
10:55 AM 57.2 °F - 53.6 °F 88% 30.18 in 3.0 mi WNW 8.1 mph - N/A   Clear
11:15 AM 57.2 °F - 53.6 °F 88% 30.19 in 4.0 mi NW 10.4 mph - N/A   Clear
11:35 AM 59.0 °F - 53.6 °F 82% 30.18 in 4.0 mi NW 4.6 mph - N/A   Haze
11:55 AM 62.6 °F - 53.6 °F 72% 30.18 in 5.0 mi West 6.9 mph - N/A   Haze
12:15 PM 60.8 °F - 53.6 °F 77% 30.18 in 4.0 mi West 6.9 mph - N/A   Haze
12:35 PM 60.8 °F - 55.4 °F 82% 30.17 in 4.0 mi WNW 5.8 mph - N/A   Haze
12:55 PM 64.4 °F - 53.6 °F 68% 30.17 in 5.0 mi WNW 5.8 mph - N/A   Haze
1:15 PM 66.2 °F - 55.4 °F 68% 30.16 in 5.0 mi WNW 6.9 mph - N/A   Haze
1:35 PM 62.6 °F - 55.4 °F 77% 30.15 in 5.0 mi NW 6.9 mph - N/A   Haze
1:55 PM 62.6 °F - 55.4 °F 77% 30.15 in 5.0 mi NW 12.7 mph - N/A   Haze
2:15 PM 62.6 °F - 55.4 °F 77% 30.15 in 5.0 mi NW 13.8 mph - N/A   Haze
2:35 PM 60.8 °F - 55.4 °F 82% 30.15 in 5.0 mi NNW 17.3 mph - N/A   Haze
2:55 PM 59.0 °F - 55.4 °F 88% 30.14 in 5.0 mi NNW 16.1 mph - N/A   Clear
3:15 PM 59.0 °F - 55.4 °F 88% 30.14 in 5.0 mi NNW 12.7 mph 18.4 mph N/A   Haze
3:35 PM 59.0 °F - 53.6 °F 82% 30.13 in 6.0 mi NNW 13.8 mph - N/A   Haze
3:55 PM 59.0 °F - 55.4 °F 88% 30.13 in 6.0 mi NNW 12.7 mph - N/A   Haze
4:15 PM 57.2 °F - 53.6 °F 88% 30.14 in 5.0 mi NNW 10.4 mph - N/A   Clear
4:35 PM 59.0 °F - 51.8 °F 77% 30.14 in 6.0 mi NNW 9.2 mph - N/A   Haze
4:55 PM 59.0 °F - 51.8 °F 77% 30.14 in 5.0 mi NNW 10.4 mph - N/A   Haze
5:15 PM 59.0 °F - 48.2 °F 67% 30.14 in 9.0 mi NNW 9.2 mph - N/A   Clear
5:35 PM 59.0 °F - 50.0 °F 72% 30.15 in 5.0 mi NNW 6.9 mph - N/A   Haze
5:55 PM 59.0 °F - 50.0 °F 72% 30.15 in 6.0 mi North 5.8 mph - N/A   Haze
6:15 PM 59.0 °F - 50.0 °F 72% 30.15 in 5.0 mi NNW 6.9 mph - N/A   Haze
6:35 PM 59.0 °F - 50.0 °F 72% 30.16 in 7.0 mi Calm Calm - N/A   Mostly Cloudy
6:55 PM 57.2 °F - 50.0 °F 77% 30.16 in 7.0 mi North 6.9 mph - N/A   Scattered Clouds
7:15 PM 57.2 °F - 51.8 °F 82% 30.17 in 7.0 mi Calm Calm - N/A   Partly Cloudy
7:35 PM 57.2 °F - 51.8 °F 82% 30.18 in 7.0 mi North 3.5 mph - N/A   Scattered Clouds
7:55 PM 57.2 °F - 51.8 °F 82% 30.18 in 6.0 mi Calm Calm - N/A   Haze
8:15 PM 55.4 °F - 50.0 °F 82% 30.19 in 7.0 mi NW 3.5 mph - N/A   Scattered Clouds
8:35 PM 55.4 °F - 50.0 °F 82% 30.19 in 8.0 mi Calm Calm - N/A   Clear
8:55 PM 57.2 °F - 48.2 °F 72% 30.20 in 9.0 mi NNW 6.9 mph - N/A   Partly Cloudy
9:15 PM 59.0 °F - 46.4 °F 63% 30.20 in 9.0 mi NNW 10.4 mph - N/A   Clear
9:35 PM 57.2 °F - 46.4 °F 67% 30.21 in 10.0 mi NNW 6.9 mph - N/A   Clear
9:55 PM 57.2 °F - 48.2 °F 72% 30.21 in 10.0 mi East 3.5 mph - N/A   Clear
10:15 PM 57.2 °F - 48.2 °F 72% 30.20 in 10.0 mi Calm Calm - N/A   Clear
10:35 PM 55.4 °F - 50.0 °F 82% 30.21 in 7.0 mi Calm Calm - N/A   Partly Cloudy
10:55 PM 55.4 °F - 50.0 °F 82% 30.20 in 8.0 mi NNW 3.5 mph - N/A   Partly Cloudy
11:15 PM 53.6 °F - 50.0 °F 88% 30.20 in 9.0 mi West 3.5 mph - N/A   Mostly Cloudy
11:35 PM 55.4 °F - 48.2 °F 77% 30.19 in 9.0 mi WNW 5.8 mph - N/A   Mostly Cloudy
11:55 PM 57.2 °F - 50.0 °F 77% 30.19 in 7.0 mi NNW 8.1 mph - N/A   Overcast